Regional Weather Roundup
Issued by NWS

Home | Current Version | Previous Version | Graphics & Text | Print | Product List | Glossary Off
Versions: 1 2 3 4 5 6 7 8 9 10 11 12 13 14 15 16 17 18 19 20 21 22 23 24 25 26 27 28 29 30 31 32 33 34 35 36 37 38 39 40 41 42 43 44 45 46 47 48 49 50

000
ASUS43 KMKX 032111
RWRWI

WISCONSIN REGIONAL WEATHER ROUNDUP
NATIONAL WEATHER SERVICE MILWAUKEE/SULLIVAN WI
400 PM CDT TUE MAY 03 2016

NOTE: "FAIR" INDICATES FEW OR NO CLOUDS BELOW 12,000 FEET WITH NO
SIGNIFICANT WEATHER AND/OR OBSTRUCTIONS TO VISIBILITY.

WIZ001-002-006>008-014>016-023>028-032200-
NORTHWEST WISCONSIN

CITY           SKY/WX    TMP DP  RH WIND       PRES   REMARKS
SUPERIOR ARPT  CLOUDY    68  30  24 N16       29.66S
ASHLAND        MOSUNNY   64  44  48 VRB7      29.65F
HAYWARD        LGT RAIN  61  37  41 W7        29.66F
SIREN          PTSUNNY   68  36  30 W15G23    29.67F
CUMBERLAND     CLOUDY    63  36  36 W20G31    29.67F
RICE LAKE      CLOUDY    66  35  31 W15G26    29.69F
CHETEK         CLOUDY    65  38  36 W13G23    29.68F
LADYSMITH      CLOUDY    62  38  40 W17       29.69F
EAU CLAIRE     CLOUDY    67  35  30 W20G29    29.68F
MENOMONIE      MOSUNNY   68  36  30 SW13G24   29.70F
NEW RICHMOND   PTSUNNY   69  38  31 W21G28    29.70F
OSCEOLA        CLOUDY    68  39  33 W22G28    29.72F
$$

WIZ003>005-009-010-017-018-032200-
NORTH CENTRAL WISCONSIN

CITY           SKY/WX    TMP DP  RH WIND       PRES   REMARKS
MANITOWISH WTR LGT RAIN  47  47 100 CALM      29.70S
ARBOR VITAE    LGT RAIN  52  47  85 NW3       29.71S
WOODRUFF       LGT RAIN  52  47  85 NW3       29.71S
RHINELANDER    LGT RAIN  52  43  71 NW8       29.72R
EAGLE RIVER    LGT RAIN  50  44  79 W5        29.70F
LAND O LAKES   RAIN      48  46  90 W5        29.72R
PHILLIPS       DRIZZLE   56  41  55 W6        29.68F
TOMAHAWK       LGT RAIN  54  41  61 W17       29.71R
MEDFORD        LGT RAIN  58  38  46 W12G20    29.69F
MERRILL        CLOUDY    61  36  39 NW21G30   29.69S
$$

WIZ029-030-035-036-043>047-032200-
CENTRAL WISCONSIN

CITY           SKY/WX    TMP DP  RH WIND       PRES   REMARKS
WAUSAU         CLOUDY    66  33  29 W15G28    29.66F
MOSINEE        CLOUDY    63  30  29 W20       29.69F
MARSHFIELD     CLOUDY    66  32  28 W17G25    29.68F
STEVENS POINT  CLOUDY    64  31  29 W14G24    29.69F
WAUPACA        CLOUDY    69  29  22 SW17G24   29.69F
WAUTOMA        CLOUDY    68  34  28 SW21G26   29.70F
WISC RAPIDS    CLOUDY    67  29  24 W14G28    29.71F
CAMP DOUGLAS   CLOUDY    68  39  34 W18G24    29.72F
$$

WIZ011>013-019>022-031-037>040-048>050-032200-
NORTHEAST WISCONSIN

CITY           SKY/WX    TMP DP  RH WIND       PRES   REMARKS
ANTIGO         LGT RAIN  57  38  49 W16G24    29.69S
SHAWANO        CLOUDY    68  32  25 W7G21     29.67F
OCONTO         CLOUDY    66  33  30 W10G22    29.64F
STURGEON BAY   CLOUDY    64  34  32 SW12G24   29.69S
GREEN BAY      PTSUNNY   68  36  30 W17       29.67F
MANITOWOC      CLOUDY    68  33  27 MISG      29.69F
APPLETON       PTSUNNY   66  30  26 SW14G22   29.69F
CLINTONVILLE   CLOUDY    66  30  26 W12       29.67F
OSHKOSH        CLOUDY    67  34  29 SW13G21   29.70F
$$

WIZ032>034-041-042-053>061-032200-
SOUTHWEST WISCONSIN

CITY           SKY/WX    TMP DP  RH WIND       PRES   REMARKS
LA CROSSE      CLOUDY    70  36  28 W20G28    29.74F
SPARTA         CLOUDY    68  35  30 W13G26    29.74F
VIROQUA        CLOUDY    66  35  32 W14G21    29.77F
BOSCOBEL       LGT RAIN  70  37  29 W13G23    29.79F
PRAIRIE DU CHI PTSUNNY   67  34  30 W15G23    29.80F
PLATTEVILLE    MOSUNNY   65  40  39 W17G23    29.82F
$$

WIZ056-057-062-063-064-067-068-032200-
SOUTH CENTRAL WISCONSIN

CITY           SKY/WX    TMP DP  RH WIND       PRES   REMARKS
REEDSBURG      CLOUDY    66  38  36 W17G23    29.75F
BARABOO/DELLS  CLOUDY    67  33  28 W12G23    29.75F
LONE ROCK      CLOUDY    66  37  34 W15G22    29.78F
MINERAL POINT  CLOUDY    64  34  32 W17G24    29.80F
MADISON        PTSUNNY   65  36  34 SW12G17   29.77F
MIDDLETON      PTSUNNY   65  37  35 W13       29.78F
WATERTOWN      CLOUDY    65  36  34 W14G22    29.76F
MONROE         MOSUNNY   64  34  32 W23G29    29.80F
JANESVILLE     PTSUNNY   66  34  30 W16G24    29.80F
$$

WIZ051-052-058>065-066-070>072-032200-
SOUTHEAST WISCONSIN

CITY           SKY/WX    TMP DP  RH WIND       PRES   REMARKS
MILWAUKEE      CLOUDY    67  33  28 W10G21    29.77F
WAUKESHA       CLOUDY    63  34  34 W14G23    29.78F
MILWAUKEE/TIMM NOT AVBL
RACINE         CLOUDY    66  34  30 W9G20     29.79F
BURLINGTON     PTSUNNY   65  34  32 SW16      29.79F
KENOSHA        CLOUDY    65  37  35 W17G23    29.79F
FOND DU LAC    CLOUDY    68  34  28 SW14      29.72F
SHEBOYGAN      CLOUDY    67  35  30 W18G24    29.72F
WEST BEND      CLOUDY    64  32  29 W16G25    29.75F
JUNEAU         CLOUDY    64  36  35 SW20      29.76F
$$

LSZ147-162-032200-
LAKE SUPERIOR

STATION/POSITION TIME  TEMP    WIND        PRES    WAVE
                       AIR SEA DIR/SP/G            HT/PER
                 (UTC) (F)     (DEG/KT/KT) (MB)    (FT/S)
W MID LAKE BUOY  2050   48 37  250/ 10/ 17 1004.7R   2/ 5
DEVILS ISLAND    2000   50     250/ 10/ 12 1004.7F
SAXON HARBOR     2000   53     190/  6/ 12 1004.7F
$$

LMZ867-665-643>646-032200-
LAKE MICHIGAN

STATION/POSITION TIME  TEMP    WIND        PRES    WAVE
                       AIR SEA DIR/SP/G            HT/PER
                 (UTC) (F)     (DEG/KT/KT) (MB)    (FT/S)
CHAMBERS ISLAND  2000   63     240/  7/ 14 1004.7F
N MID LAKE BUOY  2050   43 39  200/ 12/ 17 1004.7R   3/ 5
NORTHPORT PIER   2000   65     230/  7/ 17 1004.4F
ALGOMA LAKESHORE 2015          260/ 15/ 20   N/A
KEWAUNEE LAKESHO 2000   68     250/ 12/ 21 1005.0F
SHEBOYGAN LAKESH 2100   66     240/ 17/ 21 1006.5F
PORT WASHINGTON  2040   69     270/ 13/ 19 1008.1F
S MID LAKE BUOY  2050   45 42  170/ 12/ 12 1009.3F   1
KENOSHA   LAKESH 2100   67     250/ 12/ 19 1008.5F
$$

TC  - TEMPERATURE IN CELSIUS
VSB - VISIBILITY IN STATUTE MILES
WCI - WIND CHILL INDEX
HX  - HEAT INDEX





USA.gov is the U.S. government's official web portal to all federal, state and local government web resources and services.